Arctic Village, AK

3:59 PM AKST on January 18, 2017 (GMT -0900)
Arctic Village

Weather History for PARC - April, 2013

Change the Weather History Date:

Friday, April 12, 2013

  Actual Average Record
Temperature  
Mean Temperature 6 °F -  
Max Temperature 15 °F 26 °F 40 °F (1966)
Min Temperature -2 °F -5 °F -28 °F (1992)
Degree Days  
Heating Degree Days 58    
Moisture  
Dew Point -15 °F    
Average Humidity 36    
Maximum Humidity 100    
Minimum Humidity 19    
Precipitation  
Precipitation 0.00 in - - ()
Sea Level Pressure  
Sea Level Pressure 30.10 in    
Wind  
Wind Speed 8 mph (NE)    
Max Wind Speed 18 mph    
Max Gust Speed 26 mph    
Visibility 10 miles    
Events      
Averages and records for this station are not official NWS values.
T = Trace of Precipitation, MM = Missing Value Source: NWS Daily Summary

Daily Weather History Graph

Daily Weather History Graph

Search for Another Location

Airport or City:

Trip Planner

Search our weather history database for the weather conditions in past years. The results will help you decide how hot, cold, wet, or windy it might be!

Date:

Astronomy

Apr. 12, 2013 Rise Set
Actual Time 6:01 AM AKDT 9:26 PM AKDT
Civil Twilight 4:54 AM AKDT 10:35 PM AKDT
Nautical Twilight 2:54 AM AKDT 12:43 AM AKDT
Astronomical Twilight Sun does not rise Sun does not rise
Moon 6:02 AM AKDT (4/12) 12:17 AM AKDT (4/12)
Length of Visible Light 17h 41m
Length of Day
15h 25m
Waxing Crescent, 6% of the Moon is Illuminated
Apr 12
Waxing Crescent
Apr 18
First Quarter
Apr 25
Full
May 2
Last Quarter
May 9
New

Hourly Weather History & Observations

Time (AKDT) Temp. Windchill Dew Point Humidity Pressure Visibility Wind Dir Wind Speed Gust Speed Precip Events Conditions
12:16 AM 5.0 °F -14.7 °F -13.0 °F 43% 30.01 in 10.0 mi North 18.4 mph 26.5 mph N/A   Overcast
12:36 AM 6.8 °F -2.0 °F -14.8 °F 37% 30.02 in 10.0 mi North 4.6 mph 20.7 mph N/A   Overcast
1:16 AM 5.0 °F -9.1 °F -14.8 °F 40% 30.04 in 10.0 mi ESE 9.2 mph - N/A   Overcast
1:36 AM 3.2 °F -10.3 °F -16.6 °F 39% 30.04 in 10.0 mi East 8.1 mph - N/A   Overcast
1:56 AM 3.2 °F -11.3 °F -16.6 °F 39% 30.04 in 10.0 mi ENE 9.2 mph - N/A   Overcast
2:16 AM 3.2 °F -11.3 °F -18.4 °F 36% 30.05 in 10.0 mi NE 9.2 mph - N/A   Overcast
2:36 AM 3.2 °F -12.2 °F -16.6 °F 39% 30.05 in 10.0 mi NE 10.4 mph - N/A   Overcast
2:56 AM 3.2 °F -13.9 °F -18.4 °F 36% 30.05 in 10.0 mi NE 12.7 mph - N/A   Overcast
3:16 AM 3.2 °F -13.9 °F -18.4 °F 36% 30.05 in 10.0 mi NE 12.7 mph - N/A   Scattered Clouds
3:36 AM 3.2 °F -13.9 °F -18.4 °F 36% 30.05 in 10.0 mi NE 12.7 mph - N/A   Clear
4:16 AM 3.2 °F -13.9 °F -18.4 °F 36% 30.06 in 10.0 mi ENE 12.7 mph - N/A   Clear
4:36 AM 3.2 °F -14.6 °F -16.6 °F 39% 30.06 in 10.0 mi ENE 13.8 mph 20.7 mph N/A   Partly Cloudy
4:56 AM 3.2 °F -13.9 °F -18.4 °F 36% 30.06 in 10.0 mi ENE 12.7 mph - N/A   Scattered Clouds
5:16 AM 3.2 °F -13.1 °F -29.2 °F 21% 30.06 in 10.0 mi East 11.5 mph - N/A   Clear
5:36 AM 3.2 °F -12.2 °F -25.6 °F 25% 30.06 in 10.0 mi NE 10.4 mph 16.1 mph N/A   Clear
5:56 AM 3.2 °F -12.2 °F -22.0 °F 30% 30.06 in 10.0 mi ENE 10.4 mph - N/A   Clear
6:16 AM 3.2 °F -10.3 °F -20.2 °F 33% 30.07 in 10.0 mi ENE 8.1 mph - N/A   Clear
6:56 AM 1.4 °F - -18.4 °F 39% 30.08 in 10.0 mi Calm Calm - N/A   Clear
7:16 AM 1.4 °F - -16.6 °F 43% 30.08 in 10.0 mi Calm Calm - N/A   Clear
7:36 AM 1.4 °F - -20.2 °F 36% 30.08 in 10.0 mi Calm Calm - N/A   Clear
7:56 AM 1.4 °F - -20.2 °F 36% 30.08 in 10.0 mi Calm Calm - N/A   Clear
8:16 AM -0.4 °F -12.0 °F -23.8 °F 32% 30.08 in 10.0 mi NNE 5.8 mph - N/A   Clear
8:36 AM -0.4 °F -8.3 °F -23.8 °F 32% 30.09 in 10.0 mi NE 3.5 mph - N/A   Clear
8:56 AM 1.4 °F - -20.2 °F 36% 30.09 in 10.0 mi Calm Calm - N/A   Clear
9:16 AM 1.4 °F - -20.2 °F 36% 30.10 in 10.0 mi Calm Calm - N/A   Clear
9:36 AM 5.0 °F -2.1 °F -16.6 °F 36% 30.10 in 10.0 mi ENE 3.5 mph - N/A   Clear
9:56 AM 6.8 °F -3.5 °F -16.6 °F 34% 30.09 in 10.0 mi ENE 5.8 mph - N/A   Clear
10:16 AM 6.8 °F -2.0 °F -16.6 °F 34% 30.10 in 10.0 mi East 4.6 mph - N/A   Clear
10:36 AM 6.8 °F -3.5 °F -14.8 °F 37% 30.10 in 10.0 mi East 5.8 mph - N/A   Clear
10:56 AM 8.6 °F 0.1 °F -14.8 °F 34% 30.10 in 10.0 mi ESE 4.6 mph - N/A   Clear
11:16 AM 8.6 °F 2.0 °F -9.4 °F 44% 30.10 in 10.0 mi East 3.5 mph - N/A   Clear
11:36 AM 8.6 °F - -18.4 °F 28% 30.11 in 10.0 mi Calm Calm - N/A   Clear
11:56 AM 12.2 °F 4.3 °F 12.2 °F 100% 30.11 in 10.0 mi NE 4.6 mph - N/A   Clear
12:16 PM 12.2 °F 4.3 °F -23.8 °F 19% 30.11 in 10.0 mi NE 4.6 mph - N/A   Clear
12:36 PM 12.2 °F 1.7 °F -18.4 °F 24% 30.11 in 10.0 mi East 6.9 mph - N/A   Clear
12:56 PM 12.2 °F - -14.8 °F 29% 30.11 in 10.0 mi Calm Calm - N/A   Clear
1:16 PM 12.2 °F 0.7 °F -9.4 °F 38% 30.11 in 10.0 mi NNW 8.1 mph - N/A   Clear
1:36 PM 14.0 °F 2.0 °F -9.4 °F 35% 30.11 in 10.0 mi ENE 9.2 mph - N/A   Clear
1:56 PM 14.0 °F 0.5 °F -7.6 °F 38% 30.11 in 10.0 mi NE 11.5 mph - N/A   Clear
2:16 PM 15.8 °F 2.7 °F -5.8 °F 38% 30.11 in 10.0 mi NE 11.5 mph - N/A   Clear
2:36 PM 15.8 °F 2.7 °F -5.8 °F 38% 30.11 in 10.0 mi NNE 11.5 mph - N/A   Clear
2:56 PM 15.8 °F 3.4 °F -7.6 °F 35% 30.11 in 10.0 mi NE 10.4 mph - N/A   Clear
3:16 PM 15.8 °F 3.4 °F -5.8 °F 38% 30.11 in 10.0 mi ENE 10.4 mph 16.1 mph N/A   Clear
3:36 PM 15.8 °F 2.7 °F -5.8 °F 38% 30.11 in 10.0 mi ENE 11.5 mph - N/A   Clear
3:56 PM 15.8 °F - -5.8 °F 38% - 10.0 mi North - - N/A   Clear
4:16 PM 15.8 °F 5.1 °F -5.8 °F 38% 30.12 in 10.0 mi ENE 8.1 mph - N/A   Clear
4:36 PM 15.8 °F 6.1 °F -7.6 °F 35% 30.12 in 10.0 mi East 6.9 mph - N/A   Clear
4:56 PM 15.8 °F 7.2 °F -7.6 °F 35% 30.12 in 10.0 mi East 5.8 mph - N/A   Clear
5:16 PM 15.8 °F - -9.4 °F 32% 30.13 in 10.0 mi Calm Calm - N/A   Clear
5:36 PM 15.8 °F - -9.4 °F 32% 30.13 in 10.0 mi Calm Calm - N/A   Clear
5:56 PM 15.8 °F - -11.2 °F 30% 30.13 in 10.0 mi Calm Calm - N/A   Clear
6:16 PM 15.8 °F - -9.4 °F 32% 30.14 in 10.0 mi Calm Calm - N/A   Clear
6:36 PM 15.8 °F - -11.2 °F 30% 30.14 in 10.0 mi Calm Calm - N/A   Clear
6:56 PM 15.8 °F - -11.2 °F 30% 30.14 in 10.0 mi Calm Calm - N/A   Clear
7:16 PM 15.8 °F - -11.2 °F 30% 30.14 in 10.0 mi Calm Calm - N/A   Clear
7:36 PM 15.8 °F - -11.2 °F 30% 30.14 in 10.0 mi Calm Calm - N/A   Clear
7:56 PM 12.2 °F 4.3 °F -13.0 °F 32% 30.14 in 10.0 mi NNW 4.6 mph - N/A   Clear
8:16 PM 8.6 °F -3.7 °F -16.6 °F 31% 30.14 in 10.0 mi NNW 8.1 mph - N/A   Clear
8:36 PM 6.8 °F -4.8 °F -13.0 °F 40% 30.15 in 10.0 mi NNW 6.9 mph - N/A   Clear
8:56 PM 6.8 °F -4.8 °F -13.0 °F 40% 30.15 in 10.0 mi NNW 6.9 mph - N/A   Clear
9:16 PM 6.8 °F -0.1 °F -14.8 °F 37% 30.15 in 10.0 mi North 3.5 mph - N/A   Clear
9:36 PM 5.0 °F - -5.8 °F 61% 30.16 in 10.0 mi Calm Calm - N/A   Clear
9:56 PM 5.0 °F - -18.4 °F 33% 30.16 in 10.0 mi Calm Calm - N/A   Clear
10:16 PM 3.2 °F - -20.2 °F 33% 30.17 in 10.0 mi Calm Calm - N/A   Clear
10:36 PM 3.2 °F -6.2 °F -29.2 °F 21% 30.17 in 10.0 mi ENE 4.6 mph - N/A   Clear
10:56 PM -0.4 °F -10.4 °F -27.4 °F 27% 30.17 in 10.0 mi East 4.6 mph - N/A   Clear
11:16 PM -0.4 °F - -25.6 °F 30% 30.18 in 10.0 mi Calm Calm - N/A   Clear
11:36 PM -2.2 °F - -23.8 °F 35% 30.18 in 10.0 mi Calm Calm - N/A   Clear
11:56 PM -2.2 °F - -23.8 °F 35% 30.18 in 10.0 mi Calm Calm - N/A   Clear